Location: Tokyo
(14.3462°N, 120.9362°E)
Time: 01:18:33
(UTC+00:00)

Daily predictions for brighter satellites

Satellite Brightness Start Highest point End
(mag) Time Altitude Azimuth Time Altitude Azimuth Time Altitude Azimuth
Cosmos 1725 Rocket 4.3 09:37:33 10° S 09:43:44 76° W 09:49:58 10° N
ARIANE 3 DEB 4.3 09:45:48 10° SSW 09:47:00 13° S 09:48:19 10° SE
Cosmos 1452 Rocket 3.5 09:41:54 10° NNW 09:47:07 87° ENE 09:52:22 10° SSE
OAO 2 Rocket 4.2 09:43:38 10° WSW 09:48:27 43° NNW 09:53:22 10° NE
Cosmos 2278 Rocket 3.4 09:45:00 10° SSE 09:49:09 21° ESE 09:53:17 10° NE
BREEZE M DEB (TANK) 3.7 09:36:06 10° NW 09:49:24 59° NE 09:53:13 10° ESE
Cosmos 1025 Rocket 3.1 09:46:52 10° N 09:51:03 52° E 09:55:12 10° SSE
SWARM A 4.2 09:50:30 10° N 09:53:48 90° SW 09:57:06 10° S
Cosmos 2233 Rocket 4.0 09:48:28 10° S 09:54:40 85° E 10:00:57 10° N
MOS 1 Rocket 3.7 09:50:56 10° SE 09:54:48 33° ENE 09:58:37 10° NNE
Cosmos 1782 Rocket 3.6 09:53:11 10° S 09:57:35 88° E 10:02:00 10° N
Cosmos 1812 4.3 10:02:09 10° ESE 10:02:16 10° ESE 10:02:16 10° ESE
H-2A R/B 0.3 10:02:43 10° WSW 10:04:30 52° NNW 10:06:04 15° NE
ARIANE 5 R/B 3.8 09:54:45 10° W 10:08:15 39° SSW 10:11:58 10° SE
IRS-P3 4.1 10:02:59 10° SSE 10:08:18 76° ENE 10:13:36 10° N
Cosmos 44 Rocket 4.5 10:05:50 10° SSE 10:09:20 21° ESE 10:11:31 16° ENE
ISS -3.7 10:06:10 10° SSW 10:09:26 59° SE 10:11:56 16° NE
CZ-2D R/B 4.3 10:07:38 10° S 10:10:38 39° W 10:13:37 10° NNW
Ariane H10-3 3.5 10:11:47 10° SW 10:14:04 25° SSE 10:19:18 10° ESE
SL-8 R/B 4.3 10:09:57 10° NW 10:14:33 58° SW 10:19:11 10° SSE
Cosmos 1441 Rocket 3.4 10:12:46 10° NNE 10:15:49 33° E 10:18:53 10° SSE
SPOT 1/Viking Rocket 3.7 10:13:06 10° SSE 10:18:00 48° ENE 10:22:55 10° N
COSMO-SKYMED 1 3.3 10:14:36 10° N 10:18:35 52° WNW 10:22:35 10° SSW
ARIANE 5 R/B 3.5 10:13:50 10° S 10:18:40 49° WSW 10:23:28 10° NNW
Cosmos 1943 Rocket 2.3 10:19:06 10° S 10:24:36 55° ESE 10:29:54 11° NNE
Cosmos 1140 Rocket 4.5 10:21:34 10° SSW 10:26:33 47° WNW 10:31:32 10° N
Tsikada Rocket 4.0 10:21:07 10° N 10:27:28 69° E 10:33:44 10° SSE
IRAS Rocket 4.2 10:27:36 10° SSE 10:33:06 59° ENE 10:38:36 10° N
Cosmos 1869 3.0 10:30:12 10° S 10:33:47 82° W 10:37:22 10° N
SJ-7 4.1 10:30:15 10° SSE 10:33:55 58° ENE 10:37:32 10° N
Cosmos 1975 Rocket 3.4 10:32:17 10° NNE 10:36:20 39° E 10:40:25 10° SSE
DMSP B5D1-3 4.4 10:31:30 10° NNE 10:36:37 89° ESE 10:41:42 10° SSW
PSLV R/B 3.2 10:41:08 10° SSE 10:45:14 75° ENE 10:49:19 10° N
GPS 2-12 Rocket1 3.6 10:41:15 10° WNW 10:45:36 41° N 10:46:30 37° NNE
SL-19 R/B 4.1 10:40:07 10° SSE 10:45:40 68° ENE 10:50:56 10° N
Timation 2 Rocket 4.3 10:40:15 10° SSW 10:46:52 74° WNW 10:53:43 10° NNE
Cosmos 1190 Rocket 4.3 10:42:40 10° S 10:47:36 43° E 10:48:19 41° E
Cosmos 1513 Rocket 4.5 10:42:27 10° S 10:48:38 85° W 10:54:55 10° N
Okean 2 Rocket 4.4 10:45:39 10° SSE 10:47:50 24° SE 10:47:50 24° SE
USA 215 4.3 10:46:00 10° SSE 10:52:08 44° SW 10:58:18 10° NW
Orbus 21S 4.2 10:54:11 10° NW 10:54:56 13° NNW 10:54:56 13° NNW
Spot 4 Rocket 4.3 10:53:47 10° S 10:58:50 67° WSW 11:03:53 10° NNW
Atlas Centaur 2 4.2 10:55:39 10° WSW 10:59:24 21° SSW 11:03:46 10° SSE
Aureole 3 Rocket 4.2 10:55:34 10° SSW 11:00:14 42° W 11:03:47 10° NNW
Resurs 1-3 3.7 10:56:31 10° S 11:00:47 71° W 11:05:02 10° NNW
FUSE 4.4 10:55:37 10° W 11:00:48 51° NNW 11:01:53 44° NNE
VEP-3 3.0 10:55:16 10° WNW 11:01:39 49° NNE 11:02:56 42° NE
Cosmos 1954 Rocket 4.3 11:00:28 10° S 11:04:51 49° SE 11:04:51 49° SE
Meteor 2-12 Rocket 4.2 11:01:07 10° N 11:07:11 76° E 11:13:13 10° S
ATLAS 2A CENTAUR R/B 3.5 11:00:01 10° W 11:11:17 39° NNW 11:12:24 35° N
YAOGAN 1 3.7 11:08:04 10° S 11:12:05 42° W 11:16:07 10° NNW
NOAA 6 4.2 11:13:38 10° S 11:18:45 69° WSW 11:23:52 10° NNW
Mugunghwa Rocket 4.0 11:12:02 10° WNW 11:18:46 80° NNE 11:19:51 65° E
Cosmos 2251 Rocket 4.3 11:24:11 10° SSW 11:29:11 47° WNW 11:30:21 40° NW
Cosmos 2278 Rocket 3.9 11:28:04 10° SW 11:32:53 29° WNW 11:36:40 15° NNW
USA 234 3.2 11:37:20 71° NNW 11:37:49 75° NW 11:44:19 10° SW
Aurora 2 Rocket 3.9 11:38:40 10° WSW 11:47:30 83° W 11:47:30 83° W
Cosmos 2034 Rocket 4.4 11:42:43 10° SSW 11:48:36 56° W 11:48:36 56° W
